Location: Unspecified
(0.0000°N, 0.0000°E)
Time: 12:36:51
(UTC+00:00)

Vanguard 3 - Pass Details

Date: 14 December 2017
Orbit: 508 x 3264 km, 33.3° (Epoch: 24 April)

Event Time Altitude Azimuth Distance (km) Brightness Sun altitude
Rises 08:53:09 0° 244° (WSW) 6,054 11.4 40.2°
Reaches altitude 10° 08:58:01 10° 248° (WSW) 4,590 10.8 41.2°
Maximum altitude 09:08:58 48° 319° (NW) 1,693 8.9 43.5°
Drops below altitude 10° 09:15:12 10° 33° (NNE) 2,649 9.9 44.8°
Sets 09:17:19 0° 39° (NE) 3,352 10.4 45.3°
